TimeMST,TemperatureF,Dew PointF,Humidity,Sea Level PressureIn,VisibilityMPH,Wind Direction,Wind SpeedMPH,Gust SpeedMPH,PrecipitationIn,Events,Conditions,WindDirDegrees,DateUTC
12:14 AM,6.8,1.4,79,29.84,4.0,NW,10.4,19.6,0.00,Snow,Light Snow,310,2012-12-11 07:14:00
12:36 AM,6.8,1.4,79,29.84,10.0,NNE,6.9,-,0.00,,Overcast,20,2012-12-11 07:36:00
12:53 AM,5.0,-0.9,76,29.95,10.0,North,3.5,-,0.00,,Overcast,350,2012-12-11 07:53:00
1:33 AM,5.0,-0.4,78,29.85,6.0,NNW,4.6,-,0.00,,Haze,340,2012-12-11 08:33:00
1:53 AM,5.0,1.0,84,29.96,3.0,NW,4.6,-,0.00,Snow,Light Snow,320,2012-12-11 08:53:00
2:18 AM,6.8,1.4,79,29.85,2.0,Calm,Calm,-,0.00,Snow,Light Snow,0,2012-12-11 09:18:00
2:46 AM,6.8,1.4,79,29.85,3.0,NW,6.9,-,0.00,Snow,Light Snow,310,2012-12-11 09:46:00
2:53 AM,6.1,1.9,83,29.96,2.5,North,3.5,-,0.00,Snow,Light Snow,350,2012-12-11 09:53:00
3:06 AM,6.8,1.4,79,29.85,4.0,North,4.6,-,0.00,Snow,Light Snow,360,2012-12-11 10:06:00
3:49 AM,6.8,1.4,79,29.85,2.0,NW,4.6,-,0.00,Snow,Light Snow,320,2012-12-11 10:49:00
3:53 AM,6.1,1.9,83,29.96,1.8,Calm,Calm,-,0.00,Snow,Light Snow,0,2012-12-11 10:53:00
4:01 AM,6.8,1.4,79,29.85,2.5,NNW,3.5,-,0.00,Snow,Light Snow,330,2012-12-11 11:01:00
4:08 AM,6.8,1.4,79,29.85,6.0,North,3.5,-,0.00,Snow,Light Snow,10,2012-12-11 11:08:00
4:45 AM,6.8,1.4,79,29.85,2.0,North,3.5,-,0.00,Snow,Light Snow,360,2012-12-11 11:45:00
4:53 AM,7.0,1.9,80,29.96,1.8,Calm,Calm,-,0.00,Snow,Light Snow,0,2012-12-11 11:53:00
5:06 AM,6.8,3.2,85,29.85,1.2,Calm,Calm,-,0.00,Snow,Light Snow,0,2012-12-11 12:06:00
5:19 AM,6.8,3.2,85,29.85,2.0,NNE,4.6,-,0.00,Snow,Light Snow,30,2012-12-11 12:19:00
5:28 AM,6.8,3.2,85,29.85,4.0,NE,3.5,-,0.00,,Overcast,50,2012-12-11 12:28:00
5:39 AM,6.8,3.2,85,29.85,2.0,Calm,Calm,-,0.01,Snow,Light Snow,0,2012-12-11 12:39:00
5:53 AM,7.0,3.0,84,29.96,3.0,Variable,3.5,-,0.01,Snow,Light Snow,0,2012-12-11 12:53:00
6:04 AM,8.6,3.2,79,29.86,2.0,Calm,Calm,-,0.00,Snow,Light Snow,0,2012-12-11 13:04:00
6:10 AM,8.6,3.2,79,29.86,1.2,Calm,Calm,-,0.00,Snow,Light Snow,0,2012-12-11 13:10:00
6:41 AM,8.6,3.2,79,29.88,2.0,Calm,Calm,-,0.00,Snow,Light Snow,0,2012-12-11 13:41:00
6:53 AM,8.1,3.9,83,29.99,2.5,West,3.5,-,0.00,Snow,Light Snow,280,2012-12-11 13:53:00
7:11 AM,8.6,3.2,79,29.89,1.5,NNW,6.9,-,0.01,Snow,Light Snow,340,2012-12-11 14:11:00
7:53 AM,8.1,3.0,80,30.02,1.5,WNW,8.1,-,0.01,Snow,Light Snow,300,2012-12-11 14:53:00
8:50 AM,10.4,3.2,73,29.93,3.0,North,5.8,-,0.00,Snow,Light Snow,350,2012-12-11 15:50:00
8:53 AM,10.0,3.9,76,30.03,3.0,Variable,4.6,-,0.00,Snow,Light Snow,0,2012-12-11 15:53:00
9:06 AM,10.4,3.2,73,29.94,2.5,NNW,4.6,-,0.00,Snow,Light Snow,340,2012-12-11 16:06:00
9:22 AM,12.2,3.2,67,29.94,4.0,North,4.6,-,0.00,Snow,Light Snow,10,2012-12-11 16:22:00
9:53 AM,12.9,3.9,67,30.03,8.0,North,5.8,-,0.00,,Overcast,350,2012-12-11 16:53:00
10:53 AM,15.1,3.0,59,29.99,10.0,NNW,13.8,20.7,0.02,,Overcast,340,2012-12-11 17:53:00
11:26 AM,15.8,3.2,58,29.92,10.0,NW,13.8,24.2,N/A,,Partly Cloudy,320,2012-12-11 18:26:00
11:53 AM,16.0,5.0,62,29.96,10.0,NW,12.7,23.0,N/A,,Scattered Clouds,320,2012-12-11 18:53:00
12:53 PM,19.0,6.1,57,29.96,10.0,NNW,12.7,20.7,N/A,,Overcast,330,2012-12-11 19:53:00
1:53 PM,16.0,5.0,62,29.96,10.0,WNW,13.8,25.3,N/A,,Clear,300,2012-12-11 20:53:00
2:53 PM,16.0,5.0,62,29.97,10.0,WNW,16.1,-,N/A,,Partly Cloudy,300,2012-12-11 21:53:00
3:53 PM,15.1,6.1,68,29.97,10.0,WNW,10.4,-,N/A,,Clear,300,2012-12-11 22:53:00
4:53 PM,12.9,6.1,74,29.98,10.0,WNW,4.6,-,N/A,,Mostly Cloudy,300,2012-12-11 23:53:00
5:34 PM,8.6,5.0,85,29.89,10.0,NNE,8.1,-,N/A,,Mostly Cloudy,20,2012-12-12 00:34:00
5:49 PM,8.6,3.2,79,29.90,10.0,NNE,8.1,-,N/A,,Scattered Clouds,30,2012-12-12 00:49:00
5:53 PM,8.1,3.9,83,30.01,10.0,NE,8.1,-,N/A,,Scattered Clouds,40,2012-12-12 00:53:00
6:53 PM,8.1,1.9,76,30.03,10.0,North,11.5,-,N/A,,Clear,10,2012-12-12 01:53:00
7:53 PM,12.0,3.9,70,30.00,10.0,North,17.3,21.9,N/A,,Clear,350,2012-12-12 02:53:00
8:53 PM,12.0,5.0,73,29.98,10.0,North,13.8,-,N/A,,Overcast,10,2012-12-12 03:53:00
9:53 PM,14.0,6.1,71,29.95,10.0,North,13.8,-,N/A,,Clear,360,2012-12-12 04:53:00
10:53 PM,15.1,8.1,74,29.93,10.0,North,16.1,-,N/A,,Clear,350,2012-12-12 05:53:00
11:53 PM,12.0,5.0,73,29.95,10.0,North,4.6,-,N/A,,Clear,360,2012-12-12 06:53:00